timestamp,surface_pressure_avg,surface_temp_avg,battery_voltage,lat,long
2023-10-30 00:09:00+00:00,386.1096,10.37,11.3,47.84626,-54.09684
2023-10-30 00:19:00+00:00,379.9646,10.38,11.3,47.84626,-54.09684
2023-10-30 00:29:00+00:00,383.5896,10.39,11.3,47.84626,-54.09684
2023-10-30 00:39:00+00:00,381.8646,10.39,11.3,47.84626,-54.09684
2023-10-30 00:49:00+00:00,369.0529,10.4,11.3,47.84626,-54.09684
2023-10-30 00:59:00+00:00,369.9513,10.4,11.3,47.84626,-54.09684
2023-10-30 01:09:00+00:00,374.2162,10.4,11.3,47.84626,-54.09684
2023-10-30 01:19:00+00:00,360.4713,10.39,11.3,47.84626,-54.09684
2023-10-30 01:29:00+00:00,352.1213,10.39,11.3,47.84626,-54.09684
2023-10-30 01:39:00+00:00,356.3129,10.39,11.3,47.84626,-54.09684
2023-10-30 01:49:00+00:00,357.5262,10.4,11.3,47.84626,-54.09684
2023-10-30 01:59:00+00:00,345.708,10.4,11.3,47.84626,-54.09684
2023-10-30 02:09:00+00:00,341.163,10.43,11.3,47.84626,-54.09684
2023-10-30 02:19:01+00:00,338.0513,10.48,11.3,47.84626,-54.09684
2023-10-30 02:29:01+00:00,327.80300000000005,10.5,11.3,47.84626,-54.09684
2023-10-30 02:39:01+00:00,319.433,10.59,11.3,47.84626,-54.09684
2023-10-30 02:49:01+00:00,319.8896,10.59,11.3,47.84626,-54.09684
2023-10-30 02:59:01+00:00,310.7814,10.6,11.3,47.84626,-54.09684
2023-10-30 03:09:01+00:00,294.563,10.6,11.3,47.84626,-54.09684
2023-10-30 03:19:00+00:00,287.2014,10.6,11.22,47.84626,-54.09684
2023-10-30 03:29:00+00:00,280.2681,10.5,11.22,47.84626,-54.09684
2023-10-30 03:39:00+00:00,264.1231,10.44,11.22,47.84626,-54.09684
2023-10-30 03:49:00+00:00,253.7581,10.4,11.22,47.84626,-54.09684
2023-10-30 03:59:00+00:00,249.5597,10.42,11.22,47.84626,-54.09684
2023-10-30 04:09:00+00:00,240.2081,10.47,11.22,47.84626,-54.09684
2023-10-30 04:19:00+00:00,228.3731,10.49,11.22,47.84626,-54.09684
2023-10-30 04:29:00+00:00,223.9997,10.49,11.22,47.84626,-54.09684
2023-10-30 04:39:00+00:00,223.3981,10.49,11.22,47.84626,-54.09684
2023-10-30 04:49:00+00:00,217.5565,10.4,11.22,47.84626,-54.09684
2023-10-30 04:59:00+00:00,206.8164,10.4,11.22,47.84626,-54.09684
2023-10-30 05:09:00+00:00,205.3498,10.4,11.22,47.84626,-54.09684
2023-10-30 05:19:00+00:00,207.5348,10.46,11.22,47.84626,-54.09684
2023-10-30 05:29:00+00:00,196.1481,10.45,11.22,47.84626,-54.09684
2023-10-30 05:39:00+00:00,190.1765,10.45,11.22,47.84626,-54.09684
2023-10-30 05:49:00+00:00,198.2831,10.49,11.22,47.84626,-54.09684
2023-10-30 05:59:00+00:00,202.9115,10.5,11.22,47.84626,-54.09684
2023-10-30 06:09:00+00:00,198.8448,10.5,11.22,47.84626,-54.09684
2023-10-30 06:19:00+00:00,201.1998,10.5,11.22,47.84626,-54.09684
2023-10-30 06:29:00+00:00,211.1315,10.5,11.22,47.84626,-54.09684
2023-10-30 06:39:00+00:00,208.7964,10.5,11.22,47.84626,-54.09684
2023-10-30 06:49:00+00:00,209.3815,10.5,11.22,47.84626,-54.09684
2023-10-30 06:59:00+00:00,222.4098,10.49,11.22,47.84626,-54.09684
2023-10-30 07:09:00+00:00,229.2547,10.45,11.22,47.84626,-54.09684
2023-10-30 07:19:00+00:00,228.6381,10.4,11.22,47.84626,-54.09684
2023-10-30 07:29:00+00:00,232.9581,10.3,11.22,47.84626,-54.09684
2023-10-30 07:39:00+00:00,244.4464,10.3,11.22,47.84626,-54.09684
2023-10-30 07:49:00+00:00,253.7781,10.35,11.22,47.84626,-54.09684
2023-10-30 07:59:00+00:00,256.233,10.4,11.22,47.84626,-54.09684
2023-10-30 08:09:00+00:00,260.6264,10.2,11.22,47.84626,-54.09684
2023-10-30 08:19:00+00:00,268.828,10.1,11.14,47.84626,-54.09684
2023-10-30 08:29:00+00:00,275.9347,10.19,11.14,47.84626,-54.09684
2023-10-30 08:39:00+00:00,274.4197,10.1,11.14,47.84626,-54.09684
2023-10-30 08:49:00+00:00,281.998,9.9,11.14,47.84626,-54.09684
2023-10-30 08:59:00+00:00,291.1647,10.39,11.14,47.84626,-54.09684
2023-10-30 09:09:00+00:00,299.4564,10.6,11.14,47.84626,-54.09684
2023-10-30 09:19:00+00:00,302.433,10.1,11.14,47.84626,-54.09684
2023-10-30 09:29:00+00:00,307.563,10.2,11.14,47.84626,-54.09684
2023-10-30 09:39:00+00:00,311.8597,10.47,11.14,47.84626,-54.09684
2023-10-30 09:49:00+00:00,319.3714,10.79,11.14,47.84626,-54.09684
2023-10-30 09:59:00+00:00,329.293,10.8,11.14,47.84626,-54.09684
2023-10-30 10:09:00+00:00,338.6562,10.79,11.14,47.84626,-54.09684
2023-10-30 10:19:00+00:00,343.8129,10.8,11.14,47.84626,-54.09684
2023-10-30 10:29:00+00:00,352.1563,10.8,11.14,47.84626,-54.09684
2023-10-30 10:39:00+00:00,367.1796,10.8,11.14,47.84626,-54.09684
2023-10-30 10:49:00+00:00,378.0779,10.8,11.14,47.84626,-54.09684
2023-10-30 10:59:00+00:00,385.2329,10.8,11.14,47.84626,-54.09684
2023-10-30 11:09:00+00:00,394.7213,10.7,11.14,47.84626,-54.09684
2023-10-30 11:19:00+00:00,399.2762,10.77,11.46,47.84626,-54.09684
2023-10-30 11:29:00+00:00,400.8663,10.8,11.46,47.84626,-54.09684
2023-10-30 11:39:00+00:00,402.5229,10.78,11.46,47.84626,-54.09684
2023-10-30 11:49:00+00:00,405.7262,10.74,11.46,47.84626,-54.09684
2023-10-30 11:59:00+00:00,406.5363,10.78,11.46,47.84626,-54.09684
2023-10-30 12:09:00+00:00,410.0529,10.79,11.46,47.84626,-54.09684
2023-10-30 12:19:00+00:00,416.2963,10.8,11.7,47.84626,-54.09684
2023-10-30 12:29:00+00:00,418.3912,10.8,11.7,47.84626,-54.09684
2023-10-30 12:39:00+00:00,419.6061,10.81,11.7,47.84626,-54.09684
2023-10-30 12:49:00+00:00,423.3912,10.8,11.7,47.84626,-54.09684
2023-10-30 12:59:00+00:00,423.4579,10.81,11.7,47.84626,-54.09684
2023-10-30 13:09:00+00:00,416.8045,10.8,11.7,47.84626,-54.09684
2023-10-30 13:19:00+00:00,414.7912,10.8,11.61,47.84626,-54.09684
2023-10-30 13:29:00+00:00,419.3063,10.82,11.61,47.84626,-54.09684
2023-10-30 13:39:00+00:00,414.663,10.8,11.61,47.84626,-54.09684
2023-10-30 13:49:00+00:00,407.2961,10.7,11.61,47.84626,-54.09684
2023-10-30 13:59:00+00:00,401.6095,10.7,11.61,47.84626,-54.09684
2023-10-30 14:09:00+00:00,397.4012,10.79,11.61,47.84626,-54.09684
2023-10-30 14:19:00+00:00,390.3546,10.82,11.77,47.84626,-54.09684
2023-10-30 14:29:00+00:00,384.5229,10.87,11.77,47.84626,-54.09684
2023-10-30 14:39:00+00:00,379.0262,10.85,11.77,47.84626,-54.09684
2023-10-30 14:49:00+00:00,376.7479,10.8,11.77,47.84626,-54.09684
2023-10-30 14:59:00+00:00,367.2663,10.6,11.77,47.84626,-54.09684
2023-10-30 15:09:00+00:00,350.4296,10.5,11.77,47.84626,-54.09684
2023-10-30 15:19:00+00:00,337.5347,10.68,11.77,47.84626,-54.09684
2023-10-30 15:29:00+00:00,329.6146,10.8,11.77,47.84626,-54.09684
2023-10-30 15:39:00+00:00,321.89799999999997,10.8,11.77,47.84626,-54.09684
2023-10-30 15:49:00+00:00,308.6047,10.8,11.77,47.84626,-54.09684
2023-10-30 15:59:00+00:00,293.4996,10.6,11.77,47.84626,-54.09684
2023-10-30 16:09:00+00:00,284.0864,10.56,11.77,47.84626,-54.09684
2023-10-30 16:19:00+00:00,274.3997,10.8,11.77,47.84626,-54.09684
2023-10-30 16:29:00+00:00,262.2331,10.7,11.77,47.84626,-54.09684
2023-10-30 16:39:00+00:00,256.2231,10.6,11.77,47.84626,-54.09684
2023-10-30 16:49:00+00:00,250.0914,10.58,11.77,47.84626,-54.09684
2023-10-30 16:59:00+00:00,239.6531,10.5,11.77,47.84626,-54.09684
2023-10-30 17:09:00+00:00,228.1681,10.5,11.77,47.84626,-54.09684
2023-10-30 17:19:00+00:00,227.3931,10.57,11.53,47.84626,-54.09684
2023-10-30 17:29:00+00:00,221.7781,10.6,11.53,47.84626,-54.09684
2023-10-30 17:39:00+00:00,207.8031,10.6,11.53,47.84626,-54.09684
2023-10-30 17:49:00+00:00,201.9932,10.63,11.53,47.84626,-54.09684
2023-10-30 17:59:00+00:00,202.9948,10.6,11.53,47.84626,-54.09684
2023-10-30 18:09:00+00:00,199.2881,10.6,11.53,47.84626,-54.09684
2023-10-30 18:19:00+00:00,195.1864,10.6,11.37,47.84626,-54.09684
2023-10-30 18:29:00+00:00,191.9964,10.6,11.37,47.84626,-54.09684
2023-10-30 18:39:00+00:00,194.4348,10.4,11.37,47.84626,-54.09684
2023-10-30 18:49:00+00:00,193.3047,10.1,11.37,47.84626,-54.09684
2023-10-30 18:59:00+00:00,193.6048,10.0,11.37,47.84626,-54.09684
2023-10-30 19:09:00+00:00,201.7164,9.9,11.37,47.84626,-54.09684
2023-10-30 19:19:00+00:00,205.9598,9.9,11.37,47.84626,-54.09684
2023-10-30 19:29:00+00:00,209.5031,9.9,11.37,47.84626,-54.09684
2023-10-30 19:39:00+00:00,216.5497,9.9,11.37,47.84626,-54.09684
2023-10-30 19:49:00+00:00,223.9964,9.89,11.37,47.84626,-54.09684
2023-10-30 19:59:00+00:00,228.4814,9.98,11.37,47.84626,-54.09684
2023-10-30 20:09:00+00:00,227.8315,9.83,11.37,47.84626,-54.09684
2023-10-30 20:19:00+00:00,231.2948,9.6,11.37,47.84626,-54.09684
2023-10-30 20:29:00+00:00,240.2081,9.5,11.37,47.84626,-54.09684
2023-10-30 20:39:00+00:00,248.1364,9.7,11.37,47.84626,-54.09684
2023-10-30 20:49:00+00:00,247.2514,9.6,11.37,47.84626,-54.09684
2023-10-30 20:59:00+00:00,245.9698,9.5,11.37,47.84626,-54.09684
2023-10-30 21:09:00+00:00,256.1181,9.5,11.37,47.84626,-54.09684
2023-10-30 21:19:00+00:00,258.3764,9.5,11.37,47.84626,-54.09684
2023-10-30 21:29:00+00:00,254.8614,9.5,11.37,47.84626,-54.09684
2023-10-30 21:39:00+00:00,262.6181,9.57,11.37,47.84626,-54.09684
2023-10-30 21:49:00+00:00,277.89799999999997,9.59,11.37,47.84626,-54.09684
2023-10-30 21:59:00+00:00,283.7314,9.5,11.37,47.84626,-54.09684
2023-10-30 22:09:00+00:00,289.058,9.3,11.37,47.84626,-54.09684
2023-10-30 22:19:01+00:00,294.3447,9.66,11.37,47.84626,-54.09684
2023-10-30 22:29:01+00:00,299.2629,9.92,11.37,47.84626,-54.09684
2023-10-30 22:39:01+00:00,300.3964,10.04,11.37,47.84626,-54.09684
2023-10-30 22:49:01+00:00,306.7881,9.86,11.37,47.84626,-54.09684
2023-10-30 22:59:01+00:00,316.878,10.56,11.37,47.84626,-54.09684
2023-10-30 23:09:01+00:00,324.8179,10.7,11.37,47.84626,-54.09684
2023-10-30 23:19:00+00:00,336.30800000000005,10.7,11.37,47.84626,-54.09684
2023-10-30 23:29:00+00:00,348.4496,10.5,11.37,47.84626,-54.09684
2023-10-30 23:39:00+00:00,360.1179,10.72,11.37,47.84626,-54.09684
2023-10-30 23:49:00+00:00,365.39300000000003,10.8,11.37,47.84626,-54.09684
2023-10-30 23:59:00+00:00,367.1913,10.8,11.37,47.84626,-54.09684
